www.pogodaiklimat.ru

Погода и климат >> Архив погоды >> Россия >> Свердловская область >> Кытлым


ПОГОДА в Кытлыме

  • Прогноз погоды в Кытлыме
  • Монитор погоды в Кытлыме

АРХИВ ПОГОДЫ в Кытлыме

Время (UTC), дата Ветер
(напр.,м/с)
 
Видим.   Явления Облачность Т
(С)
Тd
(С)
f
(%)
Тe
(С)
Тes
(С)
Комфортность P
(гПа)
Po
(гПа)
Тmin
(С)
Tmax
(С)
R
(мм)
R24
(мм)
S
(см)
18 18.06 Ю 2
{10}
50 км 9/5 1000 м
[Cb cap Ci sp]
+11.8 +4.0 59 +11 +11 1005.9 962.1
21 18.06 Ю 2 50 км 10/10 1000 м
[Cb cap]
+10.4 +5.2 70 +9 +9 1005.8 961.7
00 19.06 Ю 4 50 км 6/6 1000 м
[Sc]
+12.2 +5.2 62 +10 +10 1005.6 961.8
03 19.06 ЮЗ 3 50 км 4/3 1000 м
[Cu med, cong Ac trans]
+15.2 +6.8 57 +15 +17 1005.1 961.8 +9.5
06 19.06 ЮЗ 5 50 км 8/6 1000 м
[Cu Sc Ci fib]
+17.1 +6.8 51 +16 +19 1004.3 961.3
09 19.06 ЮЗ 5
{12}
50 км 8/8 1000 м
[Cb cap]
+18.6 +6.1 44 +19 +20 1004.2 961.5
12 19.06 ЮЗ 5-11
{12}
50 км 6/6 1000 м
[Cb cap]
+20.9 +6.6 39 +22 +23 комфорт 1004.2 961.7
15 19.06 ЮЗ 3
{11}
50 км 4/4 1000 м
[Sc]
+19.4 +4.3 37 +20 +21 1005.0 962.3 +21.1
18 19.06 З 2 50 км 9/3 1000 м
[Sc Ci sp]
+14.9 +3.9 48 +15 +15 1007.3 963.8
21 19.06 ЮЗ 2 50 км 9/4 1000 м
[Sc Ac trans Ci sp]
+12.6 +8.8 78 +12 +12 1007.9 964.1
00 20.06 З 2 50 км 9/0
[Ci]
+11.0 +7.7 80 +10 +10 1008.6 964.6
03 20.06 Ю 3 50 км 9/6 1000 м
[Sc Ci fib]
+15.2 +7.9 62 +15 +16 1008.3 964.9 +10.2
06 20.06 З 3 50 км 9/6 1000 м
[Cb cap Ac trans Ci fib]
+19.7 +7.6 45 +21 +23 комфорт 1006.7 964.0
09 20.06 ЮЗ 6-10
{11}
50 км 9/8 1000 м
[Cb cap Ci fib]
+19.4 +10.3 56 +20 +21 1005.9 963.2
12 20.06 ЮЗ 5-10
{12}
10 км слаб. ливневой дождь 9/9 300 м
[Cb cap]
+19.7 +9.4 51 +21 +21 комфорт 1004.0 961.5
15 20.06 Ю 4
{14}
10 км гроза, ливневой дождь 9/9 300 м
[Cb cap]
+12.5 +10.0 85 +11 +11 1006.3 962.6 +21.5 3
18 20.06 СЗ 2 10 км {гроза, ливн. осадки} 10/10 300 м
[Cb cap]
+13.2 +9.4 78 +13 +13 1007.4 963.7
21 20.06 ЮЗ 2 50 км 3/3 1000 м
[Cb cap]
+10.3 +6.9 79 +9 +9 1008.7 964.5
00 21.06 ЮЗ 2 10 км 8/8 300 м
[Cb cap]
+10.4 +7.5 82 +9 +9 1009.9 965.7
03 21.06 ЮЗ 4 20 км 8/8 600 м
[Sc]
+9.6 +3.6 66 +7 +8 1011.5 967.1 +9.6 0.3
06 21.06 З 6-11
{12}
20 км 8/8 600 м
[Cb cap]
+8.1 +1.9 65 +4 +5 1014.3 969.5 +7.9
09 21.06 С 5
{11}
20 км 9/9 600 м
[Cb cap]
+9.2 +2.0 61 +6 +7 1014.9 970.3
12 21.06 СЗ 4
{10}
50 км 8/8 1000 м
[Cu Sc]
+11.8 -0.8 42 +10 +11 1015.8 971.5
15 21.06 З 4
{10}
50 км 6/6 1000 м
[Sc]
+12.6 -0.8 40 +11 +11 1015.8 971.6 +13.3
18 21.06 З 2 50 км 9/5 1000 м
[Sc Ac trans]
+10.6 -0.3 47 +10 +10 1016.3 971.7
21 21.06 ЮЗ 2 50 км 3/0
[Ac trans]
+4.3 +0.6 77 +2 +2 1018.0 972.4
00 22.06 З 2 50 км 3/0
[Ci fib]
+3.7 +1.0 83 +1 +1 1019.1 973.4
03 22.06 ЮЗ 2 50 км 9/0
[Ci sp]
+13.2 +1.8 46 +13 +17 1018.3 974.1 +2.3
06 22.06 СЗ 2 50 км 9/0
[Ci fib]
+16.0 +0.5 35 +16 +26 1017.3 973.6
09 22.06 ЮЗ 3 50 км 9/9 1000 м
[Sc]
+17.4 +4.4 42 +17 +19 1016.0 972.5
12 22.06 ЮЗ 4 20 км 9/9 600 м
[Sc]
+17.1 +7.2 52 +17 +17 1014.0 970.6
15 22.06 ЮЗ 2
{10}
50 км 9/4 1000 м
[Sc Ac trans Ci sp]
+17.3 +9.1 59 +18 +18 1011.3 968.1 +18.1
18 22.06 ЮЗ 3 4000 м ливневой дождь 10/10 300 м
[Cb cap]
+15.0 +11.5 80 +14 +14 1010.9 967.4
21 22.06 Ю 5
{10}
20 км {ливн. осадки} 10/6 600 м
[Cb cap Ci fib]
+16.5 +11.7 73 +16 +16 1008.9 965.7
00 23.06 ЮЗ 6-10
{10}
10 км {ливн. осадки} 8/5 300 м
[Sc Ci fib]
+16.5 +13.3 81 +15 +15 1008.4 965.2
03 23.06 ЮЗ 3
{10}
10 км 10/10 300 м
[Cb cap]
+17.5 +13.9 79 +18 +18 1007.2 964.2 +14.6 2
06 23.06 ЮЗ 5 10 км 10/10 300 м
[Cb cap]
+18.4 +14.7 79 +19 +19 1006.1 963.4
09 23.06 ЮЗ 3 10 км 10/10 300 м
[Cb cap]
+20.3 +15.3 73 +23 +23 комфорт 1005.5 963.0
12 23.06 ЮВ 2 20 км {гроза, ливн. осадки} 8/8 600 м
[Cb cap]
+19.4 +16.6 84 +22 +23 комфорт 1006.1 963.5
15 23.06 ЮВ 2 20 км {гроза, ливн. осадки} 8/3 600 м
[Cb cap Ac trans Ci fib]
+20.2 +15.2 73 +23 +24 комфорт 1006.7 964.2 +21.7 3
18 23.06 ЮВ 3 50 км {гроза, ливн. осадки} 3/3 1000 м
[Cb cap]
+17.3 +13.6 79 +17 +17 1008.1 965.1
21 23.06 З 2
{10}
50 км 4/0
[Ac trans Ci fib]
+18.1 +10.2 60 +19 +19 1009.0 966.0
00 24.06 СЗ 4 50 км 3/0
[Ci fib]
+15.9 +9.0 64 +15 +15 1010.4 967.0
03 24.06 ЮЗ 1 50 км 9/0
[Ci sp]
+14.2 +10.0 76 +15 +19 1012.0 968.3 +12.8
06 24.06 З 3 50 км 3/3 1000 м
[Cu med, cong]
+19.7 +4.1 36 +20 +28 1011.6 968.7
09 24.06 З 5
{11}
50 км 8/8 1000 м
[Cu med, cong]
+19.9 +3.6 34 +20 +22 1011.9 969.0
12 24.06 З 3
{11}
50 км 6/6 1000 м
[Cu med, cong]
+20.7 +3.1 31 +21 +24 комфорт 1012.2 969.4
15 24.06 З 3 50 км {метель} 6/6 1000 м
[Sc]
+18.7 +0.9 30 +19 +19 1013.2 970.0 +21.0
18 24.06 ЮЗ 2 50 км 4/0
[Ci fib]
+10.6 +5.5 71 +9 +9 1014.8 970.4
21 24.06 ЮЗ 2 50 км 9/0
[Ci sp]
+7.2 +4.1 81 +5 +5 1015.9 970.9
00 25.06 З 2 50 км 9/0
[Ac trans]
+8.5 +5.4 81 +7 +7 1015.8 971.0
03 25.06 С 3 4000 м дождь 10/0
[As op]
+10.2 +7.0 81 +8 +9 1016.5 971.9 +6.9 2
06 25.06 СВ 4 10 км {дождь} 10/10 300 м
[Sc]
+11.6 +8.7 82 +9 +9 1016.0 971.8
09 25.06 СВ 6 10 км 9/9 300 м
[Cb cap]
+11.6 +7.6 76 +9 +9 1015.8 971.5
12 25.06 С 2 10 км в посл. час ливневой дождь 9/9 300 м
[Cb cap]
+11.5 +7.8 78 +10 +11 1016.9 972.5
15 25.06 штиль 0 20 км 9/8 600 м
[Sc Ci fib]
+11.7 +7.7 76 +11 +12 1016.9 972.6 +13.8 0.5

 

Местоположение метеостанции Кытлым (Свердловская область, Россия): широта 59.50 долгота 59.22 высота над уровнем моря 377 м.

В архиве по умолчанию представлена погода в Кытлыме за последнюю неделю. Архивные данные за месяц целиком и за предыдущие месяцы, начиная с января 2011 года, Вы можете получить, выбрав интересующий диапазон дат из раскрывающегося списка и нажав кнопку "Ввод!".


*Определитесь, кто Вы:
робот инопланетянин человек

Внимание! Время в таблицах - всемирное. Для получения местного времени необходимо прибавить поправку, которая равна 5 ч.

Смотрите также архив погоды в соседних городах и на ближайших метеорологических станциях:

Погода в Карпинске (Свердловская область, Россия) (52 км)
Погода в Серове (Свердловская область, Россия) (75 км)
Погода в Североуральске (Свердловская область, Россия) (92 км)
Погода в Качканаре (Свердловская область, Россия) (93 км)
Погода в Бисере (Пермский край, Россия) (111 км)
Погода в Верхотурье (Свердловская область, Россия) (113 км)
Погода в Губахе (Пермский край, Россия) (119 км)
Погода в Березниках (Пермский край, Россия) (130 км)
Погода в Кушве (Свердловская область, Россия) (135 км)
Погода в Ивделе (Свердловская область, Россия) (148 км)

Пояснения к столбцам:

Ветер - указаны скорость ветра в м/с - средняя за 10 мин, порывы в срок и между сроками (в фигурных скобках) и направление, откуда дует ветер: С - северный, СВ - северо-восточный, В - восточный, ЮВ - юго-восточный, Ю - южный, ЮЗ - юго-западный, З - западный, СЗ - северо-западный.
Видимость - горизонтальная дальность видимости в метрах или километрах. При видимости от 1 до 10 км при отсутствии осадков обычно наблюдается дымка, при ухудшении видимости до 1 км и менее - туман. В сухую погоду видимость может ухудшаться дымом, пылью или мглою.
Явления - указаны атмосферные явления, наблюдавшиеся в срок или в последний час перед сроком; фигурными скобками обозначены явления, наблюдавшиеся между сроками (за 1-3 часа до срока); квадратными скобками обозначены град или гололедные отложения с указанием их диаметра в мм.
Облачность - указаны через наклонную черту общая и нижняя облачность в баллах и высота нижней границы облаков в метрах; квадратными скобками обозначены формы облаков: Ci - перистые, Cs - перисто-слоистые, Cc - перисто-кучевые, Ac - высококучевые, As - высокослоистые, Sc - слоисто-кучевые, Ns - слоисто-дождевые, Cu - кучевые, Cb - кучево-дождевые. Подробнее классификацию облаков см. в Атласе облаков (PDF).
T - Температура воздуха - температура, измеренная на высоте 2 м над землей.
Td - Температура точки росы - температура, при понижении до которой содержащийся в воздухе водяной пар достигнет насыщения.
f - Относительная влажность воздуха - влажноcть воздуха, измеренная на высоте 2 м над землей.
Te - Эффективная температура - температура, которую ощущает одетый по сезону человек в тени. Характеристика душности погоды. При расчете учитывается влияние влажности воздуха и скорости ветра на теплоощущения человека.
Tes - Эффективная температура на солнце - температура, которую ощущает человек, с поправкой на солнечный нагрев. Характеристика знойности погоды. Зависит от высоты солнца над горизонтом, облачности и скорости ветра. Ночью, в пасмурную погоду, а также при ветре 12 м/с и более поправка равна нулю.
P - Атмосферное давление - приведенное к уровню моря атмосферное давление.
Po - Атмосферное давление - измеренное на уровне метеостанции атмосферное давление.
Tmin - Минимальная температура - минимум температуры воздуха на высоте 2 м над землей.
Tmax - Максимальная температура - максимум температуры воздуха на высоте 2 м над землей.
R - Количество осадков - Количество выпавших осадков за период времени, мм. При наведении курсора мыши на число - период времени, за который выпало указанное количество осадков.
R24 - Количество осадков - Количество выпавших осадков за 24 часа, мм.
S - Снежный покров - Высота снежного покрова, см. При наведении курсора мыши на число - состояние снежного покрова и степень покрытия местности в баллах.